Location: Helsinki
(60.1699°N, 24.9384°E)
Time: 22:36:09
(UTC+02:00)

A-11 Canister half - Pass Details

Date: 27 October 2020
Orbit: 1516 x 1684 km, 47.2° (Epoch: 26 November)

Event Time Altitude Azimuth Distance (km) Brightness Sun altitude
Rises 21:00:57 0° 214° (SW) 4,924 11.7 -32.3°
Reaches altitude 10° 21:04:42 10° 204° (SSW) 3,927 11.0 -32.7°
Enters shadow 21:06:26 15° 197° (SSW) 3,522 10.7 -32.9°
Maximum altitude 21:12:40 28° 151° (SSE) 2,733 - -33.5°
Drops below altitude 10° 21:20:28 10° 98° (E) 3,846 - -34.3°
Sets 21:24:06 0° 87° (E) 4,807 - -34.6°
